[[{"header":{"parameterUnit":"m.s-1","parameterCategory":1,"la1":30.2991,"la2":30.254,"lo1":-89.0895,"lo2":-89.0444,"dy":0.0017,"dx":0.0017,"nx":28,"ny":28,"refTime":"2025-03-28T21:00:00:Z","depth":0,"parameterNumber":2,"parameterNumberName":"U-component_of_WINDS"},"data":[0,0,0,0,0,0,0,0,0,0,0,0,0,0,0,0,0,0,0,0,0,0,0,0,0,0,0,0,0,0,0,0,0,0,0,0,0,0,0,0,0,0,0,0,0,0,0,0,0,0,0,0,0,0,0,0,0,0,-5.8714,-5.8716,0,-5.8913,-5.8915,-5.8917,-5.8943,-5.8941,-5.8939,-5.8938,-5.9142,-5.9149,-5.9156,0,0,0,0,0,0,0,0,0,0,0,0,0,-5.8357,-5.8364,-5.8714,-5.8716,-5.8719,-5.8913,-5.8915,-5.8918,-5.8944,-5.8941,-5.8939,-5.8937,-5.9139,-5.9148,-5.9156,0,0,0,0,0,0,0,0,0,0,0,0,0,-5.853,-5.8366,-5.8713,-5.8755,-5.8761,-5.8912,-5.8915,-5.8919,-5.8944,-5.8941,-5.8938,-5.8936,-5.9136,-5.9147,-5.9157,-5.9281,0,0,-5.919,-5.9195,0,0,0,0,0,0,0,0,-5.852,-5.8543,-5.8746,-5.8752,-5.8759,-5.89,-5.8864,-5.904,-5.8945,-5.8874,-5.8938,-5.8934,-5.9064,-5.908,-5.9124,-5.9291,-5.93,-5.9191,-5.9198,-5.9203,-5.9206,0,0,0,0,0,0,0,-5.8508,-5.8534,-5.8792,-5.8749,-5.8757,-5.8764,-5.8785,-5.8898,-5.8983,-5.888,-5.8883,-5.8906,-5.9066,-5.9113,-5.9129,-5.9303,-5.9191,-5.9201,-5.9207,-5.9212,-5.9582,-5.9585,0,0,0,0,0,0,-5.8488,-5.8524,-5.8786,-5.8798,-5.863,-5.8773,-5.8797,-5.8858,-5.8981,-5.8997,-5.8908,-5.8906,-5.9096,-5.9116,-5.9136,-5.9289,-5.9203,-5.9213,-5.9219,-5.9579,-5.9583,-5.9586,0,0,0,0,0,0,-5.8481,-5.8511,-5.8778,-5.8662,-5.8697,-5.8782,-5.885,-5.8863,-5.891,-5.9002,-5.9018,-5.894,-5.9095,-5.9121,-5.9245,-5.9296,-5.9218,-5.9227,-5.9575,-5.958,-5.9585,-5.9595,0,0,0,0,0,0,-5.847,-5.8508,-5.8556,-5.8663,-5.8703,-5.8883,-5.8854,-5.8869,-5.8929,-5.8928,-5.9037,-5.9052,-5.9095,-5.9229,-5.9256,-5.9309,-5.9236,-5.9571,-5.9577,-5.9583,-5.959,-5.9599,-5.9607,0,0,0,0,0,-5.8457,-5.8551,-5.8558,-5.8589,-5.8764,-5.8886,-5.8909,-5.8956,-5.8932,-5.8981,-5.9041,-5.9048,-5.9287,-5.9241,-5.9272,-5.9329,-5.9567,-5.9575,-5.9583,-5.9586,-5.9597,-5.9607,0,0,0,0,0,0,-5.8446,-5.8565,-5.8575,-5.8705,-5.8786,-5.889,-5.8952,-5.8967,-5.9055,-5.9051,-5.9106,-5.9131,-5.9252,-5.9304,-5.9251,-5.9456,-5.9425,-5.9439,-5.9417,-5.9429,-5.9437,-5.9421,-5.9245,0,0,0,0,0,-5.8459,-5.8549,-5.8648,-5.8754,-5.8793,-5.8866,-5.8921,-5.8951,-5.9036,-5.907,-5.9139,-5.9222,-5.9315,-5.9376,-5.9467,-5.9599,-5.9623,-5.9654,-5.9663,-5.9669,-5.968,-5.9753,-5.9768,-5.9611,-5.9611,-5.9611,0,0,-5.8486,-5.8563,-5.8615,-5.8753,-5.8819,-5.891,-5.8894,-5.8992,-5.906,-5.9085,-5.9206,-5.926,-5.9356,-5.9485,-5.9545,-5.9531,-5.9729,-5.9679,-5.9683,-5.9691,-5.9763,-5.9777,-5.9791,-5.9616,-5.9616,-5.9615,0,0,-5.8582,-5.8649,-5.8744,-5.8811,-5.891,-5.8959,-5.8982,-5.9085,-5.9122,-5.9245,-5.9265,-5.9349,-5.9509,-5.9576,-5.9631,-5.9756,-5.9766,-5.9784,-5.9828,-5.9899,-5.9911,-5.9923,-5.9966,-5.998,-5.9795,-5.9795,-5.9795,0,-5.8603,-5.8741,-5.8791,-5.8888,-5.8948,-5.8977,-5.9073,-5.9136,-5.926,-5.9301,-5.9285,-5.9487,-5.9554,-5.9699,-5.9729,-5.9774,-5.9802,-5.977,-5.9906,-5.9917,-5.9929,-5.997,-5.9986,-5.9797,-5.9796,-5.9796,-5.9796,0,-5.8761,-5.8857,-5.8922,-5.9041,-5.9109,-5.9206,-5.9271,-5.9335,-5.936,-5.941,-5.9535,-5.9617,-5.9725,-5.9762,-5.9787,-5.9911,-5.99,-5.9894,-5.9863,-5.9944,-5.9984,-6.0,-5.9799,-5.9798,-5.9798,-5.9797,0,0,-5.8851,-5.9,-5.9022,-5.9077,-5.9191,-5.9266,-5.9365,-5.9471,-5.9523,-5.961,-5.9693,-5.9829,-5.9825,-5.9888,-5.9922,-5.9985,-6.0077,-5.9972,-5.9975,-5.9987,-6.0217,-6.0218,-6.0236,-6.0086,-6.0089,-6.0092,-6.0208,0,-5.8958,-5.9133,-5.9183,-5.9331,-5.942,-5.945,-5.9536,-5.9615,-5.9666,-5.9749,-5.9805,-5.99,-5.9889,-5.9927,-5.9991,-6.0052,-6.0123,-6.0045,-6.0163,-6.0167,-6.0135,-6.0257,-6.0259,-6.0365,-6.0225,-6.0227,-6.0229,0,-5.9106,-5.9194,-5.9351,-5.9454,-5.9493,-5.9569,-5.9671,-5.9751,-5.9842,-5.9875,-5.9946,-5.9975,-6.0079,-6.0045,-6.019,-6.0135,-6.0188,-6.0225,-6.0231,-6.0241,-6.02,-6.0268,-6.04,-6.0414,-6.0255,-6.0253,-6.0251,0,-5.9153,-5.9313,-5.9427,-5.9473,-5.9597,-5.9649,-5.9703,-5.9792,-5.9853,-5.9943,-5.9983,-6.0084,-6.0139,-6.0217,-6.0272,-6.0243,-6.0412,-6.0383,-6.0441,-6.044,-6.0472,-6.0469,-6.0611,-6.0511,-6.051,-6.051,-6.051,0,-5.9266,-5.936,-5.945,-5.952,-5.9627,-5.9684,-5.9789,-5.9844,-5.9923,-6.0005,-6.0039,-6.0114,-6.0184,-6.027,-6.0315,-6.0427,-6.0453,-6.0481,-6.0491,-6.0477,-6.0473,-6.0509,-6.0502,-6.0514,-6.0514,-6.0513,-6.0512,0,-5.9335,-5.94,-5.9526,-5.9633,-5.9663,-5.9737,-5.9829,-5.9898,-5.9951,-6.0054,-6.0082,-6.0165,-6.0268,-6.0332,-6.0463,-6.0493,-6.0616,-6.0625,-6.0584,-6.0589,-6.0642,-6.0635,-6.0811,-6.0836,-6.0721,-6.0722,-6.0723,0,-5.9401,-5.9475,-5.959,-5.9647,-5.9702,-5.9793,-5.9856,-5.9917,-5.9981,-6.0091,-6.0147,-6.0253,-6.0339,-6.0503,-6.0575,-6.0676,-6.0686,-6.074,-6.0701,-6.0684,-6.0684,-6.0678,-6.0685,-6.0745,-6.0746,-6.0747,-6.0748,0,-5.9511,-5.954,-5.9628,-5.9729,-5.9803,-5.9886,-5.9968,-6.0013,-6.0088,-6.0158,-6.0264,-6.0331,-6.0465,-6.0569,-6.0677,-6.0733,-6.0753,-6.0761,-6.0779,-6.0763,-6.0736,-6.0749,-6.0599,-6.0755,-6.0755,-6.0754,-6.0754,-6.0753,-5.958,-5.9646,-5.9738,-5.9836,-5.9905,-5.9981,-6.0051,-6.0114,-6.0203,-6.0316,-6.0347,-6.0458,-6.0549,-6.0695,-6.0754,-6.0842,-6.0834,-6.0861,-6.0868,-6.0873,-6.0872,-6.0724,-6.0862,-6.0862,-6.0862,-6.0862,-6.0862,0,-5.9689,-5.975,-5.984,-5.9954,-6.0032,-6.0046,-6.0138,-6.0202,-6.0298,-6.0382,-6.0467,-6.0589,-6.069,-6.0772,-6.0876,-6.0931,-6.0943,-6.0956,-6.0951,-6.0964,-6.0874,-6.0847,-6.0945,-6.0945,-6.0945,-6.0944,-6.0944,-6.0944,-5.9755,-5.9868,-5.9908,-6.0056,-6.0117,-6.0224,-6.0276,-6.0347,-6.0414,-6.0548,-6.0632,-6.0685,-6.0768,-6.088,-6.0973,-6.0995,-6.1031,-6.1042,-6.1065,-6.0979,-6.097,-6.0961,-6.0935,-6.105,-6.105,-6.1147,-6.1148,-6.1148]},{"header":{"parameterUnit":"m.s-1","parameterCategory":1,"la1":30.2991,"la2":30.254,"lo1":-89.0895,"lo2":-89.0444,"dy":0.0017,"dx":0.0017,"nx":28,"ny":28,"refTime":"2025-03-28T21:00:00:Z","depth":0,"parameterNumber":3,"parameterNumberName":"V-component_of_WINDS"},"data":[0,0,0,0,0,0,0,0,0,0,0,0,0,0,0,0,0,0,0,0,0,0,0,0,0,0,0,0,0,0,0,0,0,0,0,0,0,0,0,0,0,0,0,0,0,0,0,0,0,0,0,0,0,0,0,0,0,0,4.9724,4.9725,0,4.982,4.9821,4.9822,4.9816,4.9814,4.9813,4.9811,4.9907,4.991,4.9914,0,0,0,0,0,0,0,0,0,0,0,0,0,4.9531,4.9534,4.9723,4.9725,4.9726,4.982,4.9821,4.9823,4.9816,4.9814,4.9812,4.9811,4.9905,4.991,4.9914,0,0,0,0,0,0,0,0,0,0,0,0,0,4.9619,4.9535,4.9723,4.9734,4.9736,4.982,4.9821,4.9823,4.9816,4.9814,4.9812,4.981,4.9904,4.9909,4.9915,4.9993,0,0,4.9933,4.9935,0,0,0,0,0,0,0,0,4.9614,4.9627,4.9731,4.9733,4.9736,4.9804,4.9788,4.988,4.9817,4.9786,4.9811,4.9809,4.9874,4.9882,4.9905,4.9998,5.0002,4.9933,4.9937,4.9939,4.9941,0,0,0,0,0,0,0,4.9608,4.9622,4.9762,4.9733,4.9735,4.9733,4.9743,4.9806,4.984,4.9788,4.9788,4.98,4.9875,4.9899,4.9907,5.0003,4.9933,4.9938,4.9942,4.9944,5.0167,5.0169,0,0,0,0,0,0,4.96,4.9617,4.9759,4.9764,4.9669,4.9738,4.975,4.9784,4.984,4.9846,4.9801,4.9799,4.989,4.99,4.991,5.0007,4.9939,4.9945,4.9948,5.0165,5.0168,5.017,0,0,0,0,0,0,4.9596,4.9613,4.9755,4.9691,4.9709,4.9744,4.9782,4.9787,4.9811,4.985,4.9855,4.982,4.9889,4.9902,4.9973,5.001,4.9947,4.9953,5.0162,5.0166,5.0169,5.0199,0,0,0,0,0,0,4.9591,4.9611,4.9642,4.9692,4.9712,4.9817,4.9785,4.979,4.9822,4.982,4.9869,4.9875,4.9888,4.9965,4.9979,5.0017,4.9957,5.0159,5.0163,5.0168,5.0195,5.0204,5.0211,0,0,0,0,0,4.9584,4.9646,4.9644,4.9661,4.9752,4.9819,4.9831,4.9846,4.9825,4.9856,4.9881,4.9873,5.0003,4.9972,4.9988,5.0028,5.0156,5.0162,5.0167,5.0192,5.0202,5.0211,0,0,0,0,0,0,4.9598,4.9652,4.9651,4.9731,4.9771,4.9818,4.9857,4.9856,4.9902,4.9898,4.9913,4.9925,4.9997,5.0019,4.9983,5.0107,5.0077,5.0086,5.009,5.01,5.0108,5.0101,4.9962,0,0,0,0,0,4.961,4.9662,4.9706,4.9773,4.9793,4.9822,4.9852,4.986,4.9902,4.9918,4.9948,4.9988,5.0038,5.007,5.0118,5.0198,5.0209,5.0234,5.0241,5.0248,5.0255,5.0301,5.0312,5.0188,5.0188,5.0188,0,0,4.9637,4.9673,4.9704,4.9777,4.9808,4.9861,4.9836,4.9892,4.9931,4.9926,4.9996,5.002,5.0065,5.0142,5.0177,5.0163,5.0292,5.0255,5.0259,5.0264,5.0308,5.0319,5.033,5.0192,5.0191,5.0191,0,0,4.9711,4.9744,4.9804,4.9837,4.9886,4.9905,4.9919,4.9967,4.9983,5.0054,5.0052,5.0098,5.0183,5.0216,5.0244,5.0333,5.0328,5.0347,5.0388,5.0432,5.0442,5.0451,5.0483,5.0495,5.0355,5.0355,5.0355,0,4.9738,4.9818,4.9834,4.9891,4.9924,4.9923,4.9984,5.0014,5.0076,5.0098,5.0081,5.019,5.022,5.0305,5.0327,5.0349,5.0366,5.0342,5.0439,5.0448,5.0457,5.0488,5.05,5.0357,5.0357,5.0357,5.0356,0,4.9848,4.9903,4.9945,5.0007,5.0044,5.0102,5.0127,5.0162,5.0167,5.0188,5.026,5.0297,5.0353,5.0373,5.0378,5.046,5.045,5.0436,5.0406,5.0471,5.05,5.0512,5.036,5.0359,5.0359,5.0358,0,0,4.9934,5.0005,5.002,5.0049,5.0104,5.0147,5.0205,5.0261,5.0291,5.0334,5.0384,5.0457,5.0445,5.0477,5.0485,5.0524,5.0594,5.0506,5.0507,5.0522,5.0686,5.0697,5.071,5.0591,5.0593,5.0595,5.0683,0,5.0015,5.012,5.0137,5.0229,5.0281,5.0282,5.0333,5.0372,5.0393,5.0439,5.0462,5.0514,5.0494,5.0514,5.0552,5.0577,5.0627,5.0571,5.0637,5.0639,5.0626,5.0726,5.0736,5.0818,5.0694,5.0696,5.0698,0,5.0124,5.0172,5.027,5.0319,5.0341,5.0387,5.044,5.0485,5.0529,5.0541,5.0578,5.0582,5.0642,5.061,5.0693,5.0655,5.0683,5.0699,5.0703,5.071,5.0673,5.0736,5.0844,5.0856,5.0716,5.0714,5.0713,0,5.0178,5.0267,5.0337,5.0361,5.042,5.0452,5.0478,5.052,5.0553,5.06,5.0622,5.0674,5.0702,5.0742,5.0761,5.0735,5.0843,5.0812,5.0855,5.0855,5.0878,5.0877,5.0993,5.0895,5.0895,5.0895,5.0895,0,5.0268,5.0328,5.0363,5.0406,5.0473,5.0492,5.0558,5.0582,5.062,5.0668,5.0671,5.0715,5.0737,5.0784,5.0799,5.0866,5.0879,5.0891,5.0894,5.0891,5.089,5.091,5.0905,5.0898,5.0897,5.0897,5.0896,0,5.034,5.0366,5.0443,5.0493,5.0507,5.0554,5.0597,5.0638,5.0659,5.072,5.0735,5.0768,5.0824,5.0847,5.0915,5.0925,5.1003,5.1001,5.0989,5.099,5.1032,5.1028,5.1166,5.1185,5.1074,5.1075,5.1076,0,5.0396,5.0443,5.0498,5.0531,5.0559,5.0611,5.0646,5.0665,5.0701,5.0755,5.0791,5.0848,5.0894,5.0984,5.1013,5.1066,5.1066,5.1111,5.1074,5.107,5.1068,5.1065,5.107,5.1117,5.1119,5.112,5.112,0,5.0493,5.0504,5.0554,5.0609,5.065,5.0694,5.0737,5.0763,5.079,5.0829,5.0888,5.0924,5.0995,5.1051,5.1106,5.1131,5.1131,5.1132,5.1145,5.1143,5.1134,5.114,5.1008,5.1128,5.1128,5.1127,5.1127,5.1126,5.056,5.0602,5.0648,5.0704,5.0738,5.0778,5.0821,5.0848,5.0897,5.0958,5.0966,5.1029,5.1072,5.1146,5.1174,5.1223,5.1211,5.1229,5.1234,5.1239,5.1242,5.1126,5.1232,5.1232,5.1232,5.1232,5.1232,0,5.0658,5.0688,5.0739,5.08,5.0844,5.084,5.0887,5.0924,5.098,5.1021,5.1068,5.1135,5.119,5.1224,5.1279,5.1312,5.1313,5.1326,5.1324,5.133,5.1249,5.1233,5.1324,5.1324,5.1324,5.1324,5.1324,5.1324,5.0714,5.0786,5.0802,5.089,5.0919,5.0982,5.101,5.1046,5.108,5.1156,5.1202,5.1224,5.1263,5.1321,5.1371,5.138,5.14,5.1414,5.1422,5.1345,5.1336,5.1327,5.1312,5.1418,5.1418,5.1499,5.15,5.15]}]]